This demonstration page uses our WeatherBlox Daily Observations layout. Learn more.

Hourly Observations for October 22, 2019

Temp ( °F °C ) Dew Point ( °F °C ) Humidity (%) Winds ( mph kmh ) Pressure ( in mb ) Visibility ( mi km ) Precip ( " mm )
12:15 am 00:15 Cloudy 55 13 54 12 94 94 S 7 11 30.09 1019 10 16.0934 0 0
12:35 am 00:35 Cloudy 55 13 54 12 94 94 S 9 15 30.09 1019 10 16.0934 0 0
12:55 am 00:55 Cloudy 55 13 54 12 94 94 SSW 6 9 30.09 1019 10 16.0934 0 0
1:15 am 01:15 Cloudy 55 13 54 12 94 94 S 8 13 30.09 1019 10 16.0934 0 0
1:35 am 01:35 Cloudy 55 13 54 12 94 94 S 7 11 30.09 1019 10 16.0934 0 0
1:55 am 01:55 Cloudy 55 13 54 12 94 94 SSE 7 11 30.06 1018 10 16.0934 0 0
2:15 am 02:15 Cloudy 55 13 54 12 94 94 S 6 9 30.09 1019 10 16.0934 0 0
2:35 am 02:35 Cloudy 55 13 54 12 94 94 S 8 13 30.06 1018 10 16.0934 0 0
2:55 am 02:55 Cloudy 55 13 54 12 94 94 S 9 15 30.06 1018 10 16.0934 0 0
3:15 am 03:15 Cloudy 54 12 54 12 100 100 S 12 19 30.03 1017 10 16.0934 0 0
3:35 am 03:35 Cloudy 54 12 54 12 100 100 S 7 11 30.03 1017 10 16.0934 0 0
3:55 am 03:55 Cloudy 54 12 54 12 100 100 S 7 11 30.03 1017 7 11.26538 0 0
4:15 am 04:15 Cloudy 54 12 54 12 100 100 S 6 9 30.03 1017 4 6.43736 0 0
4:35 am 04:35 Cloudy 54 12 54 12 100 100 S 9 15 30 1016 5 8.0467 0 0
4:55 am 04:55 Cloudy 54 12 54 12 100 100 S 7 11 30 1016 5 8.0467 0 0
5:15 am 05:15 Cloudy 54 12 54 12 100 100 S 7 11 30.03 1017 4 6.43736 0 0
5:35 am 05:35 Cloudy 54 12 54 12 100 100 S 9 15 30.03 1017 5 8.0467 0 0
5:55 am 05:55 Cloudy 54 12 54 12 100 100 S 6 9 30.03 1017 10 16.0934 0 0
6:15 am 06:15 Cloudy 54 12 54 12 100 100 S 6 9 30 1016 10 16.0934 0 0
6:35 am 06:35 Cloudy 54 12 54 12 100 100 S 8 13 30 1016 10 16.0934 0 0
6:55 am 06:55 Cloudy 54 12 54 12 100 100 S 9 15 30 1016 7 11.26538 0 0
7:15 am 07:15 Cloudy 54 12 54 12 100 100 S 8 13 30 1016 7 11.26538 0 0
7:35 am 07:35 Cloudy 54 12 54 12 100 100 S 7 11 30 1016 7 11.26538 0 0
7:55 am 07:55 Cloudy 54 12 54 12 100 100 S 7 11 30 1016 7 11.26538 0 0
8:15 am 08:15 Cloudy 54 12 54 12 100 100 S 7 11 30 1016 10 16.0934 0 0
8:35 am 08:35 Cloudy 54 12 54 12 100 100 SSE 8 13 30 1016 10 16.0934 0 0
8:55 am 08:55 Cloudy 54 12 54 12 100 100 SSE 7 11 29.97 1015 10 16.0934 0 0
9:15 am 09:15 Cloudy 54 12 54 12 100 100 SE 10 17 29.97 1015 10 16.0934 0 0
9:35 am 09:35 Cloudy 54 12 54 12 100 100 SSE 9 15 29.97 1015 10 16.0934 0 0
9:55 am 09:55 Cloudy 55 13 54 12 94 94 S 9 15 29.97 1015 10 16.0934 0 0
10:15 am 10:15 Cloudy 55 13 54 12 94 94 S 7 11 29.97 1015 10 16.0934 0 0
10:35 am 10:35 Cloudy 55 13 54 12 94 94 S 7 11 29.97 1015 10 16.0934 0 0
10:55 am 10:55 Cloudy 55 13 54 12 94 94 SSE 9 15 29.94 1014 10 16.0934 0 0
11:15 am 11:15 Cloudy 55 13 54 12 94 94 SSE 12 19 29.94 1014 10 16.0934 0 0
11:35 am 11:35 Cloudy 55 13 55 13 100 100 SSE 14 22 29.91 1013 10 16.0934 0 0
11:55 am 11:55 Cloudy 55 13 55 13 100 100 S 8 13 29.91 1013 10 16.0934 0 0
12:15 pm 12:15 Cloudy 57 14 55 13 94 94 SSE 8 13 29.91 1013 10 16.0934 0 0
12:35 pm 12:35 Cloudy 57 14 55 13 94 94 SSE 12 19 29.88 1012 10 16.0934 0 0
12:55 pm 12:55 Cloudy 57 14 55 13 94 94 SSE 8 13 29.88 1012 10 16.0934 0 0
1:15 pm 13:15 Cloudy 59 15 55 13 88 88 SSE 9 15 29.85 1011 10 16.0934 0 0
1:35 pm 13:35 Cloudy 59 15 55 13 88 88 SSE 12 19 29.83 1010 10 16.0934 0 0
2:15 pm 14:15 Cloudy 57 14 57 14 100 100 SSE 7 11 29.83 1010 7 11.26538 0 0
2:35 pm 14:35 Cloudy 55 13 55 13 100 100 SSW 7 11 29.83 1010 4 6.43736 0.04 1.016
2:55 pm 14:55 Cloudy 55 13 55 13 100 100 Calm 29.83 1010 4 6.43736 0.09 2.286
3:15 pm 15:15 Cloudy 55 13 55 13 100 100 WNW 5 7 29.83 1010 3 4.82802 0.01 0.254
3:35 pm 15:35 Cloudy 55 13 55 13 100 100 NW 6 9 29.85 1011 2 3.21868 0.04 1.016
3:55 pm 15:55 Cloudy 55 13 55 13 100 100 WNW 5 7 29.88 1012 1.75 2.816345 0.09 2.286
4:15 pm 16:15 Cloudy 54 12 54 12 100 100 Calm 29.85 1011 3 4.82802 0.06 1.524
4:35 pm 16:35 Cloudy 55 13 55 13 100 100 Calm 29.85 1011 4 6.43736 0.11 2.794
4:55 pm 16:55 Cloudy 54 12 54 12 100 100 Calm 29.85 1011 4 6.43736 0.14 3.556
5:15 pm 17:15 Cloudy 55 13 55 13 100 100 Calm 29.83 1010 10 16.0934 0.01 0.254
5:35 pm 17:35 Cloudy 54 12 54 12 100 100 ESE 7 11 29.83 1010 10 16.0934 0.01 0.254
5:55 pm 17:55 Cloudy 54 12 54 12 100 100 ESE 6 9 29.8 1009 10 16.0934 0.01 0.254
6:15 pm 18:15 Cloudy 54 12 54 12 100 100 Calm 29.8 1009 10 16.0934 0 0
6:35 pm 18:35 Cloudy 54 12 54 12 100 100 NNW 5 7 29.83 1010 10 16.0934 0 0
6:55 pm 18:55 Cloudy 54 12 54 12 100 100 NW 7 11 29.85 1011 10 16.0934 0 0
7:15 pm 19:15 Mostly Cloudy 54 12 54 12 100 100 WNW 5 7 29.85 1011 10 16.0934 0 0
7:35 pm 19:35 Mostly Cloudy 52 11 52 11 100 100 Calm 29.85 1011 10 16.0934 0 0
7:55 pm 19:55 Cloudy 54 12 54 12 100 100 WNW 3 6 29.88 1012 10 16.0934 0 0
8:15 pm 20:15 Mostly Cloudy 54 12 54 12 100 100 NW 5 7 29.88 1012 10 16.0934 0 0
8:35 pm 20:35 Mostly Cloudy 54 12 54 12 100 100 NW 5 7 29.88 1012 10 16.0934 0 0
8:55 pm 20:55 Partly Cloudy 52 11 52 11 100 100 NW 3 6 29.88 1012 10 16.0934 0 0
9:15 pm 21:15 Clear 50 10 50 10 100 100 Calm 29.88 1012 10 16.0934 0 0
9:35 pm 21:35 Clear 50 10 50 10 100 100 Calm 29.88 1012 10 16.0934 0 0
9:55 pm 21:55 Clear 50 10 50 10 100 100 Calm 29.88 1012 4 6.43736 0 0
10:15 pm 22:15 Clear 50 10 50 10 100 100 Calm 29.88 1012 2.5 4.02335 0 0
11:15 pm 23:15 Cloudy 46 8 46 8 100 100 Calm 29.91 1013 0.25 0.402335 0 0
11:35 pm 23:35 Cloudy 45 7 45 7 100 100 Calm 29.91 1013 0.5 0.80467 0 0
11:55 pm 23:55 Cloudy 45 7 45 7 100 100 W 3 6 29.91 1013 0.5 0.80467 0 0

Powered by AerisWeather